Location: Franzen
(48.6167°N, 15.3833°E)
Time: 07:46:29
(UTC+00:00)

Transit 2A - Pass Details

Date: 09 August 2021
Orbit: 594 x 964 km, 66.7° (Epoch: 24 September)

Event Time Altitude Azimuth Distance (km) Brightness Sun altitude
Rises 02:24:04 0° 175° (S) 2,838 - -11.8°
Exits shadow 02:24:22 - 173° (S) 2,728 8.5 -11.8°
Reaches altitude 10° 02:26:39 10° 159° (SSE) 1,965 7.9 -11.5°
Maximum altitude 02:30:00 22° 109° (ESE) 1,402 7.8 -11.0°
Drops below altitude 10° 02:33:33 10° 60° (ENE) 2,090 9.8 -10.6°
Sets 02:36:23 0° 45° (NE) 3,073 11.3 -10.2°
